Orbital elements:
2003 KP2
Epoch 2003 Dec. 27.0 TT = JDT 2453000.5                 MPC
M  16.49337              (2000.0)            P               Q
n   0.21781068     Peri.  190.02924     +0.92790695     -0.33326544
a   2.7357933      Node   193.64742     +0.37184831     +0.85953896
e   0.7001701      Incl.   45.09001     +0.02678662     -0.38746215
P   4.53           H   15.4           G   0.15           U   1
Residuals in seconds of arc
530710 261  0.2+  1.4-    030706 151  0.3-  0.3+    030810 240  0.1-  0.5-
530710 261  2.3+  0.4-    030707 118  0.5-  0.1-    030810 240  0.2-  0.3-
530710 261  0.3+  0.8-    030707 118  0.1-  0.0     030811 198  0.3-  0.0
530710 261  0.3+  0.4-    030707 118  0.2+  0.0     030811 198  0.1-  0.1-
020411 644  0.5+  1.2+    030708 118  0.1-  0.0     030811 198  0.0   0.1+
020411 644  0.2+  1.0+    030708 118  0.1-  0.1-    030814 J87  0.9+  1.2-
020411 644  1.0+  1.2+    030708 118  0.1-  0.1+    030814 J87  1.0+  0.3-
030522 704  0.0   1.1+    030708 118  0.1-  0.0     030814 940  0.0   0.3-
030522 704  0.2-  0.2+    030709 762  0.1-  0.4-    030814 940  0.5-  0.8-
030522 704  0.3+  0.5+    030709 762  0.2-  0.8-    030814 940  0.1+  0.4-
030522 557  0.1+  0.0     030709 762  0.1+  0.6-    030814 940  0.3+  0.8-
030522 557  0.3-  0.1-    030709 704  0.5+  1.3+    030814 940  0.4+  0.5-
030522 557  0.1+  0.1+    030709 704  0.5+  0.1+    030814 940  0.4-  0.2-
030522 620  0.2-  0.3-    030709 704  0.6+  0.1-    030814 940  0.8+  0.2-
030522 620  0.4-  0.2-    030714 151  0.3-  0.2-    030814 940  0.4-  0.5-
030523 H59  0.3-  0.4-    030714 151  0.0   0.0     030814 940  0.1+  0.2-
030523 926  0.5-  1.2+    030714 151  0.6+  0.1-    030814 940  0.0   0.4-
030523 926  0.8-  0.4-    030714 151  0.1+  0.0     030814 940  0.0   0.3-
030523 926  0.2-  0.2+    030714 151  0.0   0.4+    030819 170  0.1-  0.6+
030523 H59  0.6-  0.5-    030714 118  0.3+  0.0     030819 170  0.2-  0.3+
030523 H59  0.1+  0.3-    030714 118  0.1+  0.0     030819 170  0.1+  0.2-
030523 H59  1.6-  0.1+    030714 118  0.3+  0.1-    030820 557  0.1+  0.9+
030524 176  0.2-  0.5-    030715 198  0.5+  0.0     030820 557  0.3+  0.4+
030524 176  0.0   0.3-    030715 198  0.8+  0.1-    030820 557  0.2-  0.2+
030524 176  0.2+  0.1+    030715 198  1.0+  0.4-    030820 557  0.1+  0.3+
030524 176  0.4+  0.5+    030716 938  0.2-  0.0     030820 557  0.3-  0.1+
030524 118  0.2+  0.4+    030716 938  0.3-  0.4+    030823 198  0.0   0.5+
030524 118  0.1-  0.1-    030717 938  0.1+  0.1-    030823 198  0.1+  0.4+
030524 118  0.2-  0.2+    030717 938  0.4-  0.2+    030823 198  0.4+  0.5+
030524 118  0.6-  0.8+    030718 046  0.4-  0.2-    030824 557  0.2+  0.1+
030525 J95  1.1-  0.2+    030718 046  0.3-  0.9+    030824 557  0.0   0.0
030525 J95  0.3-  0.5-    030718 046  0.0   0.3+    030824 557  0.1-  0.1+
030525 J95  0.2+  0.2-    030719 118  0.3-  0.1+    030824 557  0.1+  0.1+
030526 118  0.1-  0.1-    030719 118  0.8+  0.7-    030825 469  0.3+  0.2+
030526 118  0.1-  0.2+    030719 118  0.7-  0.4-    030825 469  0.2-  0.9+
030526 118  0.0   0.1-    030719 204  0.1+  0.2-    030825 469  0.2+  0.0
030527 670  0.9+  0.1-    030719 118  0.6+  0.5-    030825 469  0.5-  0.4-
030527 670  0.1-  0.6+    030719 204  1.4-  0.6+    030825 469  0.6+  0.6+
030528 118  1.4-  1.7+    030720 118  0.1+  0.2-    030825 130  0.1-  0.0
030528 118  0.8-  0.1+    030720 118  0.0   0.2-    030825 469  0.3+  0.6+
030528 118  1.2-  0.1-    030720 118  0.0   0.2-    030825 469  0.5-  1.2+
030528 118  0.0   0.2-    030722 938  0.2-  0.4+    030825 130  0.3+  0.4+
030530 176  0.1+  0.6-    030722 938  0.7-  0.0     030825 130  0.2+  0.2-
030531 176  0.4+  0.0     030724 176  0.2-  0.0     030825 J87  0.2+  0.1-
030531 176  0.4+  0.2+    030724 176  0.1+  0.3-    030825 J87  0.4+  0.1-
030531 176  0.5+  0.3+    030724 176  0.2-  0.1+    030826 557  0.1+  0.1-
030531 176  0.5+  0.3+    030724 176  0.1-  0.3-    030826 557  0.2+  0.3+
030531 J95  0.1-  0.6-    030724 176  0.1-  0.2-    030826 557  0.0   0.2+
030531 J95  0.4+  0.1+    030727 071  0.0   0.8-    030826 557  0.2-  0.1+
030531 J95  0.3+  0.6+    030727 071  2.4+  1.1-    030827 557  0.0   0.0
030531 A50  0.2+  0.1-    030727 071  0.3+  0.3+    030827 557  0.0   0.1+
030531 A50  0.0   0.0     030727 071  0.7-  0.4+    030827 557  0.0   0.1+
030531 A50  0.2+  0.1+    030727 126  0.2-  0.6-    030827 557  0.0   0.1+
030531 A50  0.0   0.1-    030727 126  0.0   0.1+    030827 046  0.2+  0.0
030531 A50  0.1-  0.4-    030727 126  0.2+  0.6-    030827 046  0.0   0.2+
030531 A50  0.2+  0.4-    030730 940  0.9-  2.0+    030827 046  0.1-  0.0
030531 A50  0.0   0.3+    030730 940  0.0   0.2+    030827 046  0.3+  0.1+
030531 A50  0.9+  0.1+    030730 940  0.2-  2.6-    030827 046  0.1+  0.0
030531 A50  0.3+  0.2+    030730 940 (0.4-  3.9-)   030827 046  0.4+  0.1+
030601 711  0.2-  0.9-    030802 469  0.2-  0.4+    030827 046  0.1-  0.0
030601 711  1.2-  2.4-    030802 469  0.2-  0.2+    030827 557  0.1-  0.2+
030601 711  0.3-  1.1-    030802 469  0.2+  0.1+    030828 557  0.0   0.1+
030601 360  0.2-  0.2-    030802 469  0.3-  0.1-    030828 557  0.1-  0.0
030601 360  0.3-  0.1-    030802 469  0.1-  0.1+    030828 557  0.1+  0.2+
030601 360  0.0   0.4-    030802 940  0.6-  0.2-    030828 557  0.0   0.3+
030601 151  0.3+  0.1-    030802 940  0.2-  0.4+    030828 557  0.1-  0.5+
030601 151  0.9-  0.0     030802 940  0.1+  0.3+    030829 J87  0.0   0.3+
030601 151  0.2+  0.1-    030802 940  0.1-  0.2-    030829 J87  0.0   0.1+
030601 151  0.5-  0.1+    030802 940  0.5-  0.8+    030829 J87  1.1-  0.1+
030601 151  0.0   0.3-    030802 940  0.8-  0.2-    030830 130  0.4+  0.6+
030604 198  0.1+  0.5+    030803 940  0.6-  0.5-    030830 130  0.2+  0.1+
030604 198  0.1+  0.2+    030803 940  0.6-  0.2+    030830 130  0.4+  0.3+
030604 198  0.0   0.2+    030803 940  0.3-  0.6+    030830 130  0.0   0.2+
030604 198  0.2-  0.3+    030803 940  0.5-  0.6-    030902 557  0.3-  0.3+
030605 198  0.2-  0.3+    030803 940  0.3+  0.2-    030902 557  0.1-  0.2+
030610 118  0.3+  1.0+    030803 940  0.2-  0.5-    030902 557  0.2-  0.2+
030610 118  0.0   0.7+    030803 940  0.5+  0.2+    030902 557  0.1-  0.2+
030610 118  0.0   0.7+    030803 940  0.1-  0.8-    030903 118  0.2+  0.4+
030610 118  0.1-  0.6+    030803 940  0.1-  0.2-    030903 118  0.3+  0.2+
030611 704  0.4-  0.1-    030803 940  0.1-  1.1-    030903 118  0.1-  0.3+
030611 704  0.4+  0.0     030803 940  0.1+  1.7-    030904 557  0.0   0.1-
030611 704  0.6-  0.8-    030803 940  0.3-  0.3-    030904 557  0.1-  0.1+
030611 704  0.3+  0.1+    030803 940  1.1-  0.5+    030905 557  0.3-  0.2-
030619 587  0.9-  0.8+    030803 940  0.5-  0.5+    030905 557  0.2-  0.1+
030619 587  0.3-  0.1-    030803 940  0.5+  0.3-    030905 557  0.2-  0.1-
030619 587  0.3+  0.4-    030804 G72  1.1+  0.4-    030905 J87  0.7+  0.2-
030620 151  0.6+  0.4+    030804 G72  0.5+  0.0     030905 J87  0.2+  0.3+
030620 151  0.9+  0.2-    030804 G72  0.9+  0.0     030905 J87  0.1+  0.2-
030620 151  0.7+  0.7+    030804 G72  0.4+  0.4-    030905 557  0.0   0.1+
030620 151  0.1-  0.3-    030804 G72  0.5+  0.1-    030905 557  0.0   0.0
030621 215  0.3+  0.1+    030805 H72  0.4+  0.1-    030906 557  0.2-  0.0
030622 126  1.4+  0.1-    030805 H72  0.2+  0.8+    030906 557  0.2-  0.0
030622 126 (4.0+  7.1+)   030805 H72  0.8-  0.5+    030906 J93  0.5+  0.7+
030625 670  1.2-  0.3+    030805 H72  0.6+  0.4+    030906 J93  0.0   0.5-
030625 670  0.5-  0.1+    030805 H72 (1.7+  5.8+)   030906 J93  0.4+  0.3+
030625 670  0.0   0.5+    030806 940  0.8-  0.8-    030906 J93  0.3+  0.6-
030625 118  0.7-  0.8-    030806 940  0.2-  0.2+    030906 557  0.2-  0.0
030625 118  0.0   0.7+    030806 940  0.0   0.5-    030906 557  0.0   0.1+
030625 118  0.7+  0.7-    030806 940  0.5-  1.0-    030906 557  0.3-  0.0
030625 118  1.0-  0.4-    030806 940  0.1-  0.0     030906 557  0.1-  0.1+
030627 071  0.3-  0.3-    030806 940  0.1-  0.1+    030907 557  0.1+  0.1-
030627 071  0.2-  0.1-    030806 940  0.2+  0.3-    030907 557  0.3+  0.3-
030627 071  0.2-  0.2-    030806 940  0.0   0.7-    030907 557  0.1+  0.3-
030630 071  1.0-  0.6-    030806 940  0.8-  0.1-    030909 730  0.1+  1.8+
030630 071  0.3-  0.7-    030806 940  0.8-  0.5-    030909 730  0.7-  0.2-
030630 071  0.3-  0.1+    030809 704  0.0   0.4+    030909 730  0.9-  0.4-
030705 126  0.2+  0.9-    030809 704  0.5+  0.7-    030912 151  0.1-  0.2+
030705 126  0.1-  0.6-    030809 704  0.5+  0.5-    030912 151  0.0   0.1+
030705 126  1.2-  1.4-    030809 704  0.0   0.3-    030912 151  0.0   0.3+
030706 151  0.2-  0.5-    030810 240  0.1+  0.4-    030912 151  0.1+  0.4+
030706 151  0.4+  0.7-    030810 240  0.2+  0.4-    030912 151  0.2+  0.5+
030706 151  0.4-  0.5+    030810 240  0.0   0.4-

